Погода в Байкалово

Россия / Свердловская область     57°23′52″N   63°45′59″E
темп.,
°C
ветер,
м/с
пор.,
м/с
влажн.,
%
обл.,
%
осадки,
мм/ч
давл.,
гПа
погр.,
м
9 марта, вт
вт923:00−8ю6139499 0.3 1002496
02:00−8юз6148562 0.1 1001436
05:00−9юз6158531 0.1 1002385
08:00−12юз511900 0.0 1003221
11:00−7юз468848 0.0 1003401
14:00−5з3481100 0.0 1003678
17:00−6зсз3588100 0.1 1006395
20:00−12ссз239177 0.0 100921
10 марта, ср
ср1023:00−15св119671 0.0 101120
02:00−14всв1296100 0.1 101120
05:00−16в2397100 0.1 101120
08:00−16всв3597100 0.1 1010106
11:00−13всв4695100 0.2 1009265
14:00−10всв5793100 0.1 1007393
17:00−10св61094100 0.4 1006483
20:00−12св71195100 0.9 1005500
11 марта, чт
чт1123:00−15св71295100 2.0 1004452
02:00−17ссв71296100 0.9 1004445
05:00−17ссв61196100 1.6 1004476
08:00−19с61097100 0.7 1005417
11:00−18с6995100 1.1 1006443
14:00−16с6993100 0.3 1007543
17:00−16ссз6889100 0.4 1008729
20:00−20ссз51092100 0.1 1010423
12 марта, пт
пт1223:00−22ссз4895100 0.1 1012396
02:00−24сз4797100 0.0 1014178
05:00−28сз459694 0.0 101578
08:00−29зсз34971 0.0 101758
11:00−21зюз34871 0.0 1017249
14:00−15юз478213 0.0 1016625
17:00−13юз478854 0.0 1015605
20:00−13юз489593 0.1 1015171
13 марта, сб
сб1323:00−13зюз5128965 0.1 1016272
02:00−13з513894 0.0 1017294
05:00−12з5129024 0.0 1018337
08:00−12з6138974 0.0 1020409
11:00−8з6108774 0.0 1021526
14:00−5з698527 0.0 1023601
17:00−3з4108754 0.0 1023608
20:00−7з4989100 0.0 1024204